Patrick AFB, FL

3:49 PM EST on December 04, 2016 (GMT -0500)
Patrick Air Force Base

Weather History for KCOF - August, 2012

Change the Weather History Date:

Thursday, August 9, 2012

  Actual Average Record
Temperature  
Mean Temperature 82 °F -  
Max Temperature 88 °F 85 °F 91 °F (2011)
Min Temperature 77 °F 74 °F 71 °F (2003)
Cooling Degree Days 18    
Growing Degree Days 32 (Base 50)    
Moisture  
Dew Point 77 °F    
Average Humidity 82    
Maximum Humidity 92    
Minimum Humidity 70    
Precipitation  
Precipitation 0.00 in - - ()
Sea Level Pressure  
Sea Level Pressure 30.01 in    
Wind  
Wind Speed 5 mph (ESE)    
Max Wind Speed 14 mph    
Max Gust Speed -    
Visibility 10 miles    
Events Thunderstorm    
Averages and records for this station are not official NWS values.
T = Trace of Precipitation, MM = Missing Value Source: NWS Daily Summary

Daily Weather History Graph

Daily Weather History Graph

Search for Another Location

Airport or City:

Trip Planner

Search our weather history database for the weather conditions in past years. The results will help you decide how hot, cold, wet, or windy it might be!

Date:

Astronomy

Aug. 09, 2012 Rise Set
Actual Time 6:49 AM EDT 8:06 PM EDT
Civil Twilight 6:24 AM EDT 8:30 PM EDT
Nautical Twilight 5:54 AM EDT 9:00 PM EDT
Astronomical Twilight 5:23 AM EDT 9:31 PM EDT
Moon 12:02 AM EDT (8/9) 1:44 PM EDT (8/9)
Length of Visible Light 14h 06m
Length of Day
13h 16m
Waning Gibbous, 51% of the Moon is Illuminated
Aug 9
Waning Gibbous
Aug 9
Last Quarter
Aug 17
New
Aug 24
First Quarter
Aug 31
Full

Hourly Weather History & Observations

Time (EDT) Temp. Heat Index Dew Point Humidity Pressure Visibility Wind Dir Wind Speed Gust Speed Precip Events Conditions
12:55 AM 77.7 °F - 74.1 °F 89% 30.05 in 10.0 mi WNW 3.5 mph - N/A   Clear
1:55 AM 78.1 °F - 74.3 °F 88% 30.03 in 10.0 mi Calm Calm - N/A   Clear
2:55 AM 78.1 °F - 74.5 °F 89% 30.01 in 10.0 mi Calm Calm - N/A   Clear
3:55 AM 77.9 °F - 75.2 °F 91% 30.00 in 9.0 mi Calm Calm - N/A   Clear
4:55 AM 78.1 °F - 75.2 °F 91% 30.00 in 10.0 mi NNE 3.5 mph - N/A   Clear
5:55 AM 77.7 °F - 75.0 °F 91% 30.01 in 10.0 mi Calm Calm - N/A   Clear
6:55 AM 78.1 °F - 75.6 °F 92% 30.03 in 10.0 mi NE 4.6 mph - N/A   Clear
7:55 AM 80.2 °F 86.1 °F 76.6 °F 89% 30.04 in 10.0 mi ENE 3.5 mph - N/A   Clear
8:20 AM 80.6 °F 87.1 °F 77.0 °F 89% 30.05 in 10.0 mi East 3.5 mph - N/A   Light Drizzle
8:28 AM 82.4 °F 90.9 °F 77.0 °F 84% 30.05 in 10.0 mi Calm Calm - N/A   Clear
8:45 AM 82.4 °F 90.9 °F 77.0 °F 84% 30.05 in 10.0 mi Calm Calm - N/A   Light Drizzle
8:55 AM 82.4 °F 91.2 °F 77.5 °F 85% 30.05 in 10.0 mi Calm Calm - 0.00 in   Light Drizzle
9:55 AM 83.7 °F 93.1 °F 76.8 °F 80% 30.06 in 10.0 mi Calm Calm - 0.00 in   Clear
10:55 AM 85.3 °F 96.7 °F 77.7 °F 78% 30.06 in 10.0 mi East 6.9 mph - N/A   Clear
11:55 AM 85.6 °F 97.7 °F 78.1 °F 78% 30.05 in 10.0 mi ENE 8.1 mph - N/A   Clear
12:55 PM 87.1 °F 100.9 °F 78.6 °F 76% 30.03 in 10.0 mi East 10.4 mph - N/A   Clear
1:55 PM 87.3 °F 100.9 °F 78.6 °F 75% 30.01 in 10.0 mi East 10.4 mph - N/A Thunderstorm Clear
2:55 PM 88.0 °F 101.9 °F 78.3 °F 73% 30.00 in 10.0 mi East 10.4 mph - N/A   Clear
3:55 PM 87.6 °F 100.8 °F 77.9 °F 73% 29.97 in 10.0 mi East 11.5 mph - N/A   Clear
4:47 PM 87.8 °F 99.7 °F 77.0 °F 70% 29.96 in 10.0 mi ESE 13.8 mph - N/A   Light Drizzle
4:55 PM 87.3 °F 99.8 °F 77.5 °F 73% 29.96 in 10.0 mi ESE 13.8 mph - 0.00 in   Light Drizzle
4:58 PM 87.8 °F 99.7 °F 77.0 °F 70% 29.96 in 10.0 mi ESE 12.7 mph - N/A   Clear
5:55 PM 86.2 °F 97.8 °F 77.4 °F 75% 29.96 in 10.0 mi ESE 12.7 mph - 0.00 in   Clear
6:55 PM 85.5 °F 97.7 °F 78.4 °F 79% 29.96 in 10.0 mi SE 10.4 mph - N/A   Clear
7:55 PM 83.7 °F 93.8 °F 77.7 °F 82% 29.97 in 10.0 mi SE 10.4 mph - N/A   Clear
8:55 PM 82.9 °F 92.8 °F 78.1 °F 85% 30.00 in 10.0 mi SSE 9.2 mph - N/A   Clear
9:55 PM 82.9 °F 92.1 °F 77.4 °F 83% 30.01 in 10.0 mi SSE 10.4 mph - N/A   Clear
10:55 PM 82.4 °F 91.2 °F 77.5 °F 85% 30.01 in 10.0 mi SSE 10.4 mph - N/A   Clear
11:55 PM 82.4 °F 90.9 °F 77.2 °F 84% 30.01 in 10.0 mi South 11.5 mph - N/A   Clear